Location: Asheville, NC
(35.6000°N, 82.5500°W)
Time: 03:33:15
(UTC-04:00)

XW-2A - Pass Details

Date: 18 March 2018
Orbit: 434 x 455 km, 97.4° (Epoch: 18 June)

Event Time Altitude Azimuth Distance (km) Brightness Sun altitude
Rises 20:17:49 0° 148° (SSE) 2,395 ? -8.4°
Reaches altitude 10° 20:19:57 10° 138° (SE) 1,533 ? -8.9°
Maximum altitude 20:22:53 31° 74° (ENE) 783 ? -9.5°
Drops below altitude 10° 20:25:52 10° 10° (N) 1,551 ? -10.1°
Sets 20:28:02 0° 360° (N) 2,428 ? -10.5°
